PST,Max TemperatureF,Mean TemperatureF,Min TemperatureF,Max Dew PointF,MeanDew PointF,Min DewpointF,Max Humidity, Mean Humidity, Min Humidity, Max Sea Level PressureIn, Mean Sea Level PressureIn, Min Sea Level PressureIn, Max VisibilityMiles, Mean VisibilityMiles, Min VisibilityMiles, Max Wind SpeedMPH, Mean Wind SpeedMPH, Max Gust SpeedMPH,PrecipitationIn, CloudCover, Events, WindDirDegrees
2012-12-1,56,50,44,48,44,37,100,85,58,29.66,29.50,29.27,10,10,4,23,11,31,0.32,7,Rain,172
2012-12-2,46,45,44,46,44,41,100,94,81,29.83,29.58,29.18,10,9,3,18,11,26,0.51,8,Rain,188
2012-12-3,50,47,44,49,45,42,100,93,76,30.02,29.92,29.66,10,9,5,18,11,26,0.36,7,Rain,170
2012-12-4,53,48,44,52,47,41,100,93,82,29.89,29.70,29.54,10,9,4,21,9,26,0.54,8,Rain,190
2012-12-5,47,40,34,43,39,35,99,91,69,30.23,30.11,29.89,10,9,4,20,10,29,0.11,6,Rain,198
2012-12-6,44,42,39,43,41,39,100,95,86,30.21,30.13,30.08,10,9,4,13,8,,0.25,7,Rain,189
2012-12-7,46,42,37,43,40,32,100,91,71,30.18,30.06,29.99,10,10,5,23,11,34,0.22,7,Rain,207
2012-12-8,43,40,36,38,36,33,100,89,74,30.36,30.27,30.18,10,10,10,10,5,,0.00,5,,181
2012-12-9,43,40,37,43,41,36,100,98,87,30.39,30.33,30.27,10,6,2,8,2,,0.09,8,Rain,65
2012-12-10,44,40,37,45,43,37,100,99,93,30.43,30.35,30.12,10,6,1,9,3,,0.06,7,,147
2012-12-11,46,40,35,43,39,36,100,97,81,30.11,29.84,29.55,10,6,0,13,5,,0.17,6,Fog-Rain,176
2012-12-12,46,40,35,39,38,36,100,92,71,30.04,29.84,29.63,10,10,9,10,6,,0.00,7,,193
2012-12-13,45,40,36,39,37,34,100,92,65,30.07,29.96,29.81,10,8,1,10,3,,0.05,8,Rain,170
2012-12-14,42,36,31,39,37,31,100,97,80,29.97,29.88,29.77,10,7,1,9,3,,0.22,5,Rain,174
2012-12-15,42,35,28,39,35,28,100,91,75,29.91,29.67,29.53,10,9,1,17,7,23,0.05,5,Rain,199
2012-12-16,44,40,35,43,39,35,100,96,91,29.78,29.45,28.98,10,10,4,20,9,28,0.91,7,Rain,171
2012-12-17,46,39,32,45,36,32,100,90,71,29.92,29.54,28.95,10,9,2,32,18,46,0.27,6,Rain-Snow,205
2012-12-18,37,33,29,34,32,29,100,97,81,30.01,29.94,29.89,10,9,2,14,8,,0.21,6,Snow,183
2012-12-19,46,40,33,41,36,30,100,87,66,29.96,29.72,29.55,10,9,6,22,10,34,0.76,7,Rain-Snow,160
2012-12-20,46,37,28,41,36,28,100,95,81,29.84,29.68,29.51,10,7,0,21,7,25,0.35,4,Fog-Rain,162
2012-12-21,46,35,24,39,30,25,100,98,77,29.82,29.76,29.68,10,5,0,6,2,,0.01,3,Fog-Rain,113
2012-12-22,46,40,35,39,37,35,100,88,69,29.76,29.60,29.50,10,10,7,20,6,31,0.08,6,Rain,176
2012-12-23,43,39,35,41,38,34,100,94,81,29.85,29.70,29.62,10,10,7,8,4,,0.27,7,Rain,230
2012-12-24,42,38,35,42,39,35,100,97,93,30.18,30.09,29.87,10,8,1,12,5,,0.02,6,Rain,191
2012-12-25,41,37,33,41,37,34,100,98,93,30.03,29.72,29.65,10,8,3,7,2,,0.44,7,Rain-Snow,77
2012-12-26,46,42,37,43,40,37,100,95,81,29.94,29.77,29.69,10,8,3,16,4,21,0.25,8,Rain,174
2012-12-27,46,40,35,41,39,34,100,92,74,30.18,30.09,29.96,10,10,10,16,10,,0.01,8,Rain,197
2012-12-28,45,39,33,39,36,32,100,94,73,30.18,30.15,30.11,10,8,2,5,1,,0.00,4,Rain,143
2012-12-29,41,37,33,39,37,34,100,97,81,30.25,30.18,30.14,10,7,0,5,2,,0.09,7,Fog-Rain,137
2012-12-30,41,34,28,39,34,27,100,98,86,30.33,30.27,30.23,10,3,0,5,2,,0.00,5,Fog,141
2012-12-31,37,32,26,37,31,27,100,99,93,30.47,30.36,30.25,10,4,0,5,1,,0.00,4,Fog,157